| time (UTC) | temp F | wind direction | speed knots | gust knots | rain 1hr in | rain 24hr in | rain mn in | humidity % | barometer mb |
| 20260504003103 | 57 | 60 | 6.1 | 0.0 | 0.00 | 0.00 | 0.00 | 54 | 1012.0 |
| 20260504001852 | 57 | 40 | 6.1 | 0.0 | 0.00 | 0.00 | 0.00 | 54 | |
| 20260504000212 | 57 | 40 | 5.2 | 0.0 | 0.00 | 0.00 | 0.00 | 54 | 1013.0 |
| 20260503233102 | 59 | 50 | 6.1 | 0.0 | 0.00 | 0.00 | 0.00 | 51 | 1012.0 |
| 20260503231854 | 59 | 110 | 6.1 | 0.0 | 0.00 | 0.00 | 0.00 | 51 | |
| 20260503230103 | 61 | 110 | 6.1 | 0.0 | 0.00 | 0.00 | 0.00 | 48 | 1012.0 |
| 20260503223103 | 63 | 100 | 5.2 | 0.0 | 0.00 | 0.00 | 0.00 | 45 | 1012.0 |
| 20260503221853 | 63 | 130 | 4.3 | 0.0 | 0.00 | 0.00 | 0.00 | 42 | |
| 20260503220103 | 64 | 140 | 4.3 | 0.0 | 0.00 | 0.00 | 0.00 | 42 | 1012.0 |
| 20260503213102 | 64 | 170 | 7.8 | 0.0 | 0.00 | 0.00 | 0.00 | 42 | 1012.0 |
| 20260503211853 | 64 | 160 | 7.8 | 0.0 | 0.00 | 0.00 | 0.00 | 42 | |
| 20260503210104 | 66 | 160 | 7.8 | 0.0 | 0.00 | 0.00 | 0.00 | 39 | 1012.0 |
| 20260503203103 | 66 | 150 | 7.0 | 0.0 | 0.00 | 0.00 | 0.00 | 39 | 1012.0 |
| 20260503201851 | 66 | 130 | 6.1 | 0.0 | 0.00 | 0.00 | 0.00 | 37 | |
| 20260503193102 | 68 | 120 | 7.0 | 0.0 | 0.00 | 0.00 | 0.00 | 34 | 1012.0 |
| 20260503191850 | 68 | 120 | 7.8 | 0.0 | 0.00 | 0.00 | 0.00 | 34 | |
| 20260503190210 | 68 | 120 | 7.8 | 0.0 | 0.00 | 0.00 | 0.00 | 34 | 1012.0 |
| 20260503183103 | 70 | 120 | 8.7 | 0.0 | 0.00 | 0.00 | 0.00 | 32 | 1012.0 |
| 20260503181853 | 70 | 120 | 7.8 | 0.0 | 0.00 | 0.00 | 0.00 | 32 | |
| 20260503173103 | 75 | 130 | 8.7 | 0.0 | 0.00 | 0.00 | 0.00 | 27 | 1012.0 |
| 20260503171851 | 75 | 120 | 10.4 | 0.0 | 0.00 | 0.00 | 0.00 | 27 | |
| 20260503170210 | 77 | 120 | 8.7 | 0.0 | 0.00 | 0.00 | 0.00 | 23 | 1012.0 |
| 20260503160104 | 79 | 130 | 7.8 | 0.0 | 0.00 | 0.00 | 0.00 | 22 | 1012.0 |
| 20260503150103 | 79 | 130 | 7.0 | 0.0 | 0.00 | 0.00 | 0.00 | 22 | 1012.0 |
| 20260503130210 | 77 | 130 | 7.0 | 0.0 | 0.00 | 0.00 | 0.00 | 22 | 1014.0 |
| 20260503100210 | 73 | 0 | 7.0 | 0.0 | 0.00 | 0.00 | 0.00 | 27 | 1016.0 |
| 20260503071849 | 63 | 60 | 4.3 | 0.0 | 0.00 | 0.00 | 0.00 | 42 | |
| 20260503070103 | 63 | 60 | 4.3 | 0.0 | 0.00 | 0.00 | 0.00 | 42 | 1017.0 |
| 20260503060103 | 59 | 110 | 2.6 | 0.0 | 0.00 | 0.00 | 0.00 | 47 | 1017.0 |
| 20260503053103 | 54 | 100 | 0.9 | 0.0 | 0.00 | 0.00 | 0.00 | 58 | 1017.0 |
| 20260503051850 | 52 | 0 | 0.0 | 0.0 | 0.00 | 0.00 | 0.00 | 62 | |
| 20260503043103 | 50 | 70 | 5.2 | 0.0 | 0.00 | 0.00 | 0.00 | 61 | 1017.0 |
| 20260503041851 | 46 | 50 | 4.3 | 0.0 | 0.00 | 0.00 | 0.00 | 65 | |
| 20260503033210 | 48 | 50 | 2.6 | 0.0 | 0.00 | 0.00 | 0.00 | 66 | 1017.0 |
| 20260503031849 | 50 | 40 | 4.3 | 0.0 | 0.00 | 0.00 | 0.00 | 57 | |
| 20260503030211 | 46 | 30 | 1.7 | 0.0 | 0.00 | 0.00 | 0.00 | 65 | 1017.0 |
| 20260503023102 | 48 | 100 | 2.6 | 0.0 | 0.00 | 0.00 | 0.00 | 61 | 1017.0 |
| 20260503021849 | 54 | 160 | 4.3 | 0.0 | 0.00 | 0.00 | 0.00 | 46 | |
| 20260503013103 | 57 | 180 | 6.1 | 0.0 | 0.00 | 0.00 | 0.00 | 44 | 1017.0 |
| 20260503013003 | 57 | 180 | 6.1 | 0.0 | 0.00 | 0.00 | 0.00 | 44 | 1017.0 |
| 20260503011850 | 52 | 180 | 6.1 | 0.0 | 0.00 | 0.00 | 0.00 | 53 | |
| 20260503010104 | 54 | 170 | 7.0 | 0.0 | 0.00 | 0.00 | 0.00 | 50 | 1017.0 |